{"data":{"norad_id":65524,"intl_designator":"2025-200E","name":"STARLINK-35055","alt_names":[],"object_type":"PAYLOAD","status":"ACTIVE","operator":null,"country":"US","launch_date":"2025-09-06","launch_site_code":"AFWTR","launch_vehicle":null,"mission":null,"orbit_class":"UNKNOWN","rcs_meters":null,"size_class":null,"mass_kg":null,"dimensions":null,"purposes":["comms"],"wikipedia_slug":null,"has_3d_model":false,"image_url":null,"decayed_at":null,"tle_current":{"epoch":"2026-09-18T22:12:50.245056Z","epoch_age_seconds":248023,"freshness":"STALE","line1":"1 65524U 25200E   26261.92558154  .00015381  00000+0  47754-3 0  9994","line2":"2 65524  97.2848 328.3866 0000968  89.1544 270.9809 15.33461224 58405","mean_motion":15.33461224,"eccentricity":9.68e-5,"inclination_deg":97.2848,"raan_deg":328.3866,"arg_perigee_deg":89.1544,"mean_anomaly_deg":270.9809,"bstar":0.00047754,"rev_number":5840,"period_min":93.905211130399,"perigee_km":464.832440126,"apogee_km":466.15736726255,"semimajor_km":6843.6319036943,"source":"CELESTRAK","updated_at":"2026-09-21T09:00:35.648284Z"}}}